When you browse on this site, cookies collect data to enhance your experience and personalize the content and advertising you see.
Visit our Privacy Policy to learn more. By continuing to use the site, you agree to this use of cookies and data.
  • In Czech Republic
  • List of Countries
  • For 7 days
  • Water Temperature
  • Satellite Maps
  • Weather Map
  • Weather Widgets
  • user-avatar
    Login

    Hourly Weather Arteixo

    Today, 16 December, Sunday

    Time Temperature Precipitation Wind Pressure Humidity
    00:00 +10°C° 0 mm 4 mps 757 mmHg 98%
    01:00 +10°C° 0 mm 4 mps 757 mmHg 97%
    02:00 +8°C° 0 mm 4 mps 757 mmHg 97%
    03:00 +8°C° 0 mm 5 mps 757 mmHg 96%
    04:00 +8°C° 0 mm 5 mps 756 mmHg 96%
    05:00 +8°C° 0 mm 6 mps 755 mmHg 96%
    06:00 +8°C° 1.1 mm 6 mps 756 mmHg 95%
    07:00 +9°C° 1.1 mm 7 mps 756 mmHg 95%
    08:00 +9°C° 1.1 mm 8 mps 756 mmHg 94%
    09:00 +9°C° 0.7 mm 8 mps 757 mmHg 92%
    10:00 +9°C° 0.7 mm 7 mps 757 mmHg 91%
    11:00 +10°C° 0 mm 8 mps 758 mmHg 88%
    12:00 +10°C° 0.2 mm 7 mps 758 mmHg 87%
    13:00 +10°C° 0.2 mm 7 mps 759 mmHg 86%
    14:00 +10°C° 0.2 mm 6 mps 759 mmHg 85%
    15:00 +9°C° 0.1 mm 5 mps 760 mmHg 87%
    16:00 +8°C° 0.1 mm 5 mps 761 mmHg 90%
    17:00 +7°C° 0.1 mm 5 mps 761 mmHg 93%
    18:00 +7°C° 0.1 mm 5 mps 762 mmHg 93%
    19:00 +7°C° 0.1 mm 5 mps 762 mmHg 94%
    20:00 +7°C° 0.1 mm 5 mps 763 mmHg 94%
    21:00 +7°C° 0 mm 5 mps 763 mmHg 95%
    22:00 +7°C° 0 mm 5 mps 763 mmHg 95%
    23:00 +7°C° 0 mm 5 mps 763 mmHg 95%

    Tomorrow, 17 December, Monday

    Time Temperature Precipitation Wind Pressure Humidity
    00:00 +7°C° 0 mm 5 mps 763 mmHg 95%
    01:00 +7°C° 0 mm 5 mps 763 mmHg 95%
    02:00 +7°C° 0 mm 5 mps 763 mmHg 95%
    03:00 +7°C° 0 mm 5 mps 763 mmHg 95%
    04:00 +7°C° 0 mm 5 mps 763 mmHg 94%
    05:00 +7°C° 0 mm 5 mps 763 mmHg 94%
    06:00 +7°C° 0 mm 5 mps 763 mmHg 93%
    07:00 +7°C° 0 mm 6 mps 763 mmHg 92%
    08:00 +8°C° 0 mm 6 mps 763 mmHg 91%
    09:00 +9°C° 0 mm 6 mps 763 mmHg 88%
    10:00 +10°C° 0 mm 6 mps 763 mmHg 84%
    11:00 +11°C° 0 mm 7 mps 763 mmHg 80%
    12:00 +11°C° 0 mm 7 mps 762 mmHg 79%
    13:00 +11°C° 0 mm 6 mps 761 mmHg 78%
    14:00 +11°C° 0 mm 6 mps 761 mmHg 77%
    15:00 +10°C° 0 mm 6 mps 760 mmHg 79%
    16:00 +10°C° 0 mm 7 mps 760 mmHg 82%
    17:00 +9°C° 0 mm 7 mps 760 mmHg 84%
    18:00 +9°C° 0 mm 7 mps 759 mmHg 81%
    19:00 +9°C° 0 mm 7 mps 759 mmHg 79%
    20:00 +9°C° 0 mm 8 mps 759 mmHg 77%
    21:00 +9°C° 0 mm 8 mps 758 mmHg 76%
    22:00 +8°C° 0 mm 9 mps 757 mmHg 74%
    23:00 +8°C° 0 mm 9 mps 757 mmHg 73%

    Day after tomorrow, 18 December, Tuesday

    Time Temperature Precipitation Wind Pressure Humidity
    00:00 +10°C° 0 mm 9 mps 755 mmHg 70%
    01:00 +10°C° 0 mm 9 mps 754 mmHg 68%
    02:00 +10°C° 0 mm 9 mps 753 mmHg 66%
    03:00 +11°C° 0.4 mm 10 mps 752 mmHg 69%
    04:00 +11°C° 0.4 mm 11 mps 751 mmHg 72%
    05:00 +11°C° 0.4 mm 11 mps 750 mmHg 76%
    06:00 +11°C° 4.3 mm 9 mps 750 mmHg 82%
    07:00 +11°C° 4.3 mm 7 mps 751 mmHg 88%
    08:00 +10°C° 4.3 mm 5 mps 751 mmHg 94%
    09:00 +10°C° 2.8 mm 5 mps 752 mmHg 95%
    10:00 +10°C° 2.8 mm 5 mps 753 mmHg 95%
    11:00 +9°C° 2.8 mm 6 mps 753 mmHg 96%
    12:00 +9°C° 0.5 mm 6 mps 754 mmHg 94%
    13:00 +9°C° 0.5 mm 6 mps 754 mmHg 92%
    14:00 +10°C° 0.5 mm 6 mps 754 mmHg 90%
    15:00 +9°C° 0.1 mm 6 mps 755 mmHg 91%
    16:00 +8°C° 0.1 mm 6 mps 755 mmHg 92%
    17:00 +8°C° 0.1 mm 6 mps 756 mmHg 93%
    18:00 +8°C° 0.3 mm 6 mps 756 mmHg 93%
    19:00 +8°C° 0.3 mm 6 mps 757 mmHg 94%
    20:00 +8°C° 0.3 mm 6 mps 757 mmHg 94%
    21:00 +8°C° 0.3 mm 6 mps 757 mmHg 94%
    22:00 +8°C° 0.3 mm 6 mps 758 mmHg 94%
    23:00 +8°C° 0.3 mm 6 mps 758 mmHg 94%

    19 December, Wednesday

    Time Temperature Precipitation Wind Pressure Humidity
    00:00 +8°C° 0.7 mm 7 mps 758 mmHg 94%
    01:00 +8°C° 0.7 mm 7 mps 758 mmHg 94%
    02:00 +8°C° 0.7 mm 7 mps 758 mmHg 93%
    03:00 +8°C° 0.5 mm 7 mps 758 mmHg 94%
    04:00 +8°C° 0.5 mm 6 mps 758 mmHg 94%
    05:00 +8°C° 0.5 mm 6 mps 758 mmHg 94%
    06:00 +8°C° 0.5 mm 6 mps 758 mmHg 94%
    07:00 +8°C° 0.5 mm 6 mps 759 mmHg 94%
    08:00 +8°C° 0.5 mm 6 mps 759 mmHg 94%
    09:00 +9°C° 0.3 mm 6 mps 760 mmHg 92%
    10:00 +9°C° 0.3 mm 6 mps 760 mmHg 90%
    11:00 +10°C° 0.3 mm 5 mps 760 mmHg 88%
    12:00 +10°C° 0.1 mm 5 mps 760 mmHg 87%
    13:00 +10°C° 0.1 mm 5 mps 760 mmHg 86%
    14:00 +10°C° 0.1 mm 5 mps 760 mmHg 85%
    15:00 +9°C° 0.2 mm 5 mps 760 mmHg 88%
    16:00 +9°C° 0.2 mm 5 mps 760 mmHg 92%
    17:00 +8°C° 0.2 mm 4 mps 761 mmHg 96%
    18:00 +8°C° 0 mm 4 mps 761 mmHg 96%
    19:00 +8°C° 0 mm 4 mps 761 mmHg 97%
    20:00 +7°C° 0 mm 4 mps 761 mmHg 97%
    21:00 +8°C° 0.1 mm 4 mps 761 mmHg 96%
    22:00 +8°C° 0.1 mm 5 mps 761 mmHg 96%
    23:00 +9°C° 0.1 mm 5 mps 761 mmHg 95%

    20 December, Thursday

    Time Temperature Precipitation Wind Pressure Humidity
    00:00 +9°C° 0.1 mm 5 mps 761 mmHg 95%
    01:00 +9°C° 0.1 mm 5 mps 761 mmHg 95%
    02:00 +9°C° 0.1 mm 5 mps 761 mmHg 95%
    03:00 +9°C° 0.1 mm 5 mps 761 mmHg 96%
    04:00 +9°C° 0.1 mm 5 mps 761 mmHg 96%
    05:00 +10°C° 0.1 mm 5 mps 761 mmHg 96%
    06:00 +10°C° 0.1 mm 5 mps 761 mmHg 96%
    07:00 +10°C° 0.1 mm 5 mps 761 mmHg 95%
    08:00 +10°C° 0.1 mm 5 mps 761 mmHg 95%
    09:00 +10°C° 0.4 mm 6 mps 761 mmHg 94%
    10:00 +11°C° 0.4 mm 6 mps 761 mmHg 94%
    11:00 +11°C° 0.4 mm 7 mps 761 mmHg 93%
    12:00 +11°C° 0.4 mm 7 mps 761 mmHg 93%
    13:00 +11°C° 0.4 mm 7 mps 760 mmHg 93%
    14:00 +11°C° 0.4 mm 7 mps 760 mmHg 93%
    15:00 +11°C° 0.4 mm 7 mps 760 mmHg 93%
    16:00 +11°C° 0.4 mm 7 mps 760 mmHg 94%
    17:00 +11°C° 0.4 mm 7 mps 761 mmHg 94%
    18:00 +11°C° 0.5 mm 7 mps 761 mmHg 94%
    19:00 +12°C° 0.5 mm 7 mps 761 mmHg 94%
    20:00 +12°C° 0.5 mm 7 mps 761 mmHg 93%
    21:00 +12°C° 0.5 mm 7 mps 761 mmHg 94%
    22:00 +12°C° 0.5 mm 7 mps 760 mmHg 94%
    23:00 +12°C° 0.5 mm 7 mps 760 mmHg 94%

    21 December, Friday

    Time Temperature Precipitation Wind Pressure Humidity
    00:00 +12°C° 0.4 mm 7 mps 760 mmHg 94%
    01:00 +14°C° 0.4 mm 7 mps 760 mmHg 95%
    02:00 +14°C° 0.4 mm 7 mps 760 mmHg 95%
    03:00 +14°C° 0.2 mm 7 mps 760 mmHg 95%
    04:00 +14°C° 0.2 mm 7 mps 760 mmHg 95%
    05:00 +15°C° 0.2 mm 7 mps 761 mmHg 95%
    06:00 +15°C° 0.1 mm 7 mps 761 mmHg 95%
    07:00 +15°C° 0.1 mm 7 mps 761 mmHg 94%
    08:00 +15°C° 0.1 mm 7 mps 761 mmHg 93%
    09:00 +15°C° 0.1 mm 7 mps 762 mmHg 91%
    10:00 +16°C° 0.1 mm 7 mps 762 mmHg 89%
    11:00 +16°C° 0.1 mm 7 mps 762 mmHg 87%
    12:00 +16°C° 0.1 mm 7 mps 762 mmHg 87%
    13:00 +16°C° 0.1 mm 7 mps 761 mmHg 87%
    14:00 +16°C° 0.1 mm 7 mps 761 mmHg 88%
    15:00 +16°C° 0.2 mm 7 mps 762 mmHg 89%
    16:00 +15°C° 0.2 mm 7 mps 762 mmHg 91%
    17:00 +15°C° 0.2 mm 6 mps 762 mmHg 93%
    18:00 +15°C° 0.5 mm 7 mps 762 mmHg 94%
    19:00 +15°C° 0.5 mm 7 mps 763 mmHg 94%
    20:00 +15°C° 0.5 mm 7 mps 763 mmHg 94%
    21:00 +15°C° 0.6 mm 7 mps 763 mmHg 95%
    22:00 +15°C° 0.6 mm 7 mps 763 mmHg 95%
    23:00 +15°C° 0.6 mm 6 mps 763 mmHg 95%
    Show more